Regional Weather Roundup
Issued by NWS

Home | Current Version | Previous Version | Text Only | Print | Product List | Glossary Off
Versions: 1 2 3 4 5 6 7 8 9 10 11 12 13 14 15 16 17 18 19 20 21 22 23 24 25 26 27 28 29 30 31 32 33 34 35 36 37 38 39 40 41 42 43 44 45 46 47 48 49 50

000
ASUS43 KFSD 270702
RWRSD

WEATHER ROUNDUP FOR SOUTH DAKOTA
NATIONAL WEATHER SERVICE SIOUX FALLS SD
100 AM CST THU NOV 27 2014

NOTE: "FAIR" INDICATES FEW OR NO CLOUDS BELOW 12,000 FEET WITH NO
SIGNIFICANT WEATHER AND/OR OBSTRUCTIONS TO VISIBILITY.


SDZ001>005-009-010-012>017-270800-
NORTHWEST AND NORTH CENTRAL SOUTH DAKOTA

CITY           SKY/WX    TMP DP  RH WIND       PRES   REMARKS
BUFFALO          N/A     20  13  74 S9        30.18F WCI   9
FAITH            N/A     15  12  88 SE9       30.33S WCI   3
MOBRIDGE       PTCLDY     1  -4  79 E9        30.41F WCI -14
$$

SDZ012>016-024>037-041>051-057-063-072>074-270800-
SOUTHWEST AND SOUTH CENTRAL SOUTH DAKOTA

CITY           SKY/WX    TMP DP  RH WIND       PRES   REMARKS
RAPID CTY ARPT CLOUDY    24  22  91 E7        30.26S WCI  16
PIERRE         CLOUDY    11   6  81 E12       30.43F WCI  -3
CUSTER         PTCLDY    21  19  92 SW5       30.14F WCI  15
ELLSWORTH AFB  CLOUDY    23  21  94 SE8       30.24  WCI  13
PHILIP         CLOUDY    20  14  77 E10       30.36F WCI   9
PINE RIDGE     CLOUDY    31  26  82 S8        30.24F WCI  23
WINNER         CLOUDY    19  10  68 E9        30.41F WCI   8
$$

SDZ004>011-016>023-039-040-270800-
NORTHEAST SOUTH DAKOTA

CITY           SKY/WX    TMP DP  RH WIND       PRES   REMARKS
ABERDEEN       MOCLDY    -9 -14  78 N3        30.53S
WATERTOWN      MOCLDY    -7 -12  79 N3        30.45S
SISSETON         N/A     -9 -13  83 NW7       30.53R WCI -24
$$

SDZ017-020-022-023-036>040-048>070-270800-
SOUTHEAST SOUTH DAKOTA

CITY           SKY/WX    TMP DP  RH WIND       PRES   REMARKS
SIOUX FALLS    CLEAR      2  -7  66 N6        30.48R WCI  -9
HURON          PTCLDY    -4  -9  79 NW5       30.52R WCI -15
MITCHELL       CLOUDY     8   0  69 N8        30.53R WCI  -4
YANKTON        CLOUDY    12   3  67 NW8       30.51S WCI   1
$$

ABBREVIATIONS USED IN REMARKS
   TC - TEMPERATURE IN CELSIUS
  WCI - WIND CHILL INDEX
   HX - HEAT INDEX
  VSB - VISIBILITY




USA.gov is the U.S. government's official web portal to all federal, state and local government web resources and services.